| time (UTC) | temp F | wind direction | speed MPH | gust MPH | rain 1hr in | rain 24hr in | rain mn in | humidity % | barometer mb |
| 20260505152920 | 45 | 360 | 0.0 | 4.0 | 0.00 | 0.34 | 0.03 | 83 | 1008.7 |
| 20260505152442 | 45 | 360 | 1.0 | 5.0 | 0.00 | 0.34 | 0.03 | 84 | 1008.8 |
| 20260505151918 | 45 | 360 | 2.0 | 5.0 | 0.01 | 0.34 | 0.03 | 85 | 1008.7 |
| 20260505151418 | 45 | 360 | 0.0 | 3.0 | 0.01 | 0.34 | 0.03 | 85 | 1008.5 |
| 20260505150918 | 44 | 360 | 1.0 | 3.0 | 0.01 | 0.34 | 0.03 | 85 | 1008.7 |
| 20260505150419 | 44 | 360 | 1.0 | 2.0 | 0.02 | 0.34 | 0.03 | 85 | 1008.9 |
| 20260505140419 | 46 | 360 | 0.0 | 2.0 | 0.01 | 0.32 | 0.01 | 79 | 1009.3 |
| 20260505124916 | 49 | 360 | 1.0 | 5.0 | 0.00 | 0.31 | 0.00 | 73 | 1007.9 |
| 20260505124416 | 49 | 360 | 3.0 | 5.0 | 0.00 | 0.31 | 0.00 | 72 | 1007.6 |
| 20260505123917 | 49 | 360 | 1.0 | 4.0 | 0.00 | 0.31 | 0.00 | 73 | 1007.1 |
| 20260505123416 | 49 | 360 | 1.0 | 5.0 | 0.00 | 0.31 | 0.00 | 73 | 1006.8 |
| 20260505122936 | 49 | 360 | 1.0 | 5.0 | 0.00 | 0.31 | 0.00 | 73 | 1006.7 |
| 20260505122417 | 49 | 360 | 1.0 | 4.0 | 0.00 | 0.31 | 0.00 | 73 | 1007.1 |
| 20260505121916 | 49 | 360 | 1.0 | 5.0 | 0.00 | 0.31 | 0.00 | 73 | 1007.0 |
| 20260505121418 | 49 | 360 | 2.0 | 5.0 | 0.00 | 0.31 | 0.00 | 73 | 1007.0 |
| 20260505120918 | 49 | 360 | 1.0 | 4.0 | 0.00 | 0.31 | 0.00 | 73 | 1007.6 |
| 20260505120418 | 49 | 360 | 2.0 | 4.0 | 0.00 | 0.31 | 0.00 | 72 | 1007.1 |
| 20260505115938 | 49 | 360 | 0.0 | 3.0 | 0.00 | 0.31 | 0.00 | 72 | 1006.6 |
| 20260505115437 | 49 | 360 | 0.0 | 3.0 | 0.00 | 0.31 | 0.00 | 71 | 1006.2 |
| 20260505114917 | 49 | 360 | 1.0 | 3.0 | 0.00 | 0.31 | 0.00 | 70 | 1005.9 |
| 20260505114420 | 49 | 360 | 1.0 | 3.0 | 0.00 | 0.31 | 0.00 | 70 | 1006.1 |
| 20260505113920 | 49 | 360 | 0.0 | 0.0 | 0.00 | 0.31 | 0.00 | 71 | 1006.2 |
| 20260505113435 | 49 | 360 | 0.0 | 0.0 | 0.00 | 0.31 | 0.00 | 71 | 1005.9 |
| 20260505112916 | 49 | 360 | 0.0 | 0.0 | 0.00 | 0.31 | 0.00 | 70 | 1005.6 |
| 20260505112415 | 50 | 360 | 0.0 | 0.0 | 0.00 | 0.31 | 0.00 | 69 | 1005.2 |
| 20260505111933 | 50 | 360 | 0.0 | 0.0 | 0.00 | 0.31 | 0.00 | 69 | 1005.2 |
| 20260505111413 | 50 | 360 | 0.0 | 0.0 | 0.00 | 0.31 | 0.00 | 68 | 1005.3 |
| 20260505110913 | 50 | 360 | 0.0 | 0.0 | 0.00 | 0.31 | 0.00 | 68 | 1005.4 |
| 20260505110413 | 50 | 360 | 0.0 | 3.0 | 0.00 | 0.31 | 0.00 | 67 | 1005.6 |
| 20260505101919 | 52 | 360 | 1.0 | 3.0 | 0.00 | 0.31 | 0.00 | 66 | 1006.0 |
| 20260505101419 | 52 | 360 | 2.0 | 4.0 | 0.00 | 0.31 | 0.00 | 66 | 1005.7 |
| 20260505100921 | 52 | 360 | 1.0 | 4.0 | 0.00 | 0.31 | 0.00 | 66 | 1005.4 |
| 20260505100423 | 52 | 360 | 2.0 | 4.0 | 0.00 | 0.31 | 0.00 | 66 | 1005.2 |
| 20260505095924 | 52 | 360 | 2.0 | 4.0 | 0.00 | 0.31 | 0.00 | 68 | 1004.8 |
| 20260505095426 | 53 | 360 | 1.0 | 5.0 | 0.00 | 0.31 | 0.00 | 69 | 1004.9 |
| 20260505094925 | 53 | 360 | 2.0 | 5.0 | 0.00 | 0.31 | 0.00 | 70 | 1005.0 |
| 20260505094427 | 53 | 360 | 2.0 | 4.0 | 0.00 | 0.31 | 0.00 | 72 | 1004.7 |
| 20260505093929 | 53 | 360 | 0.0 | 0.0 | 0.00 | 0.31 | 0.00 | 75 | 1004.5 |
| 20260505093429 | 53 | 360 | 0.0 | 0.0 | 0.00 | 0.31 | 0.00 | 75 | 1004.6 |
| 20260505092931 | 53 | 360 | 0.0 | 0.0 | 0.00 | 0.31 | 0.00 | 74 | 1004.2 |
| 20260505092411 | 53 | 360 | 0.0 | 2.0 | 0.00 | 0.31 | 0.00 | 73 | 1004.2 |
| 20260505091913 | 53 | 360 | 0.0 | 3.0 | 0.00 | 0.31 | 0.00 | 72 | 1004.2 |
| 20260505091414 | 53 | 360 | 1.0 | 3.0 | 0.00 | 0.31 | 0.00 | 73 | 1004.1 |
| 20260505090913 | 54 | 360 | 0.0 | 4.0 | 0.00 | 0.31 | 0.00 | 78 | 1003.8 |
| 20260505090415 | 54 | 360 | 1.0 | 4.0 | 0.00 | 0.31 | 0.00 | 83 | 1003.7 |
| 20260505085914 | 54 | 360 | 0.0 | 0.0 | 0.00 | 0.31 | 0.00 | 88 | 1003.9 |
| 20260505085415 | 55 | 360 | 0.0 | 0.0 | 0.00 | 0.31 | 0.00 | 89 | 1004.1 |
| 20260505084917 | 55 | 360 | 0.0 | 0.0 | 0.00 | 0.31 | 0.00 | 90 | 1004.1 |
| 20260505084419 | 55 | 360 | 0.0 | 0.0 | 0.00 | 0.31 | 0.00 | 90 | 1004.2 |
| 20260505083939 | 55 | 360 | 0.0 | 0.0 | 0.00 | 0.31 | 0.00 | 90 | 1004.1 |
| 20260505083420 | 55 | 360 | 0.0 | 0.0 | 0.00 | 0.31 | 0.00 | 90 | 1003.7 |
| 20260505082920 | 55 | 360 | 0.0 | 0.0 | 0.00 | 0.31 | 0.00 | 90 | 1003.4 |
| 20260505082422 | 55 | 360 | 0.0 | 0.0 | 0.00 | 0.31 | 0.00 | 90 | 1003.3 |
| 20260505081923 | 55 | 360 | 0.0 | 0.0 | 0.00 | 0.31 | 0.00 | 90 | 1003.2 |
| 20260505081424 | 55 | 360 | 0.0 | 0.0 | 0.00 | 0.31 | 0.00 | 90 | 1003.1 |
| 20260505080927 | 55 | 360 | 0.0 | 0.0 | 0.00 | 0.31 | 0.00 | 90 | 1003.1 |
| 20260505080428 | 55 | 360 | 0.0 | 0.0 | 0.00 | 0.31 | 0.00 | 90 | 1003.1 |
| 20260505075929 | 55 | 360 | 0.0 | 0.0 | 0.00 | 0.31 | 0.00 | 90 | 1003.2 |
| 20260505075411 | 55 | 360 | 0.0 | 0.0 | 0.00 | 0.31 | 0.00 | 90 | 1003.1 |
| 20260505074912 | 55 | 360 | 0.0 | 0.0 | 0.00 | 0.31 | 0.00 | 90 | 1002.8 |
| 20260505074412 | 56 | 360 | 0.0 | 0.0 | 0.00 | 0.31 | 0.00 | 89 | 1002.8 |
| 20260505073913 | 56 | 360 | 0.0 | 0.0 | 0.00 | 0.31 | 0.00 | 89 | 1002.6 |
| 20260505073415 | 56 | 360 | 0.0 | 0.0 | 0.00 | 0.31 | 0.00 | 89 | 1002.5 |
| 20260505072916 | 56 | 360 | 0.0 | 2.0 | 0.00 | 0.31 | 0.00 | 89 | 1002.7 |
| 20260505072437 | 56 | 360 | 0.0 | 2.0 | 0.00 | 0.31 | 0.00 | 88 | 1002.7 |
| 20260505071919 | 56 | 360 | 0.0 | 0.0 | 0.00 | 0.31 | 0.00 | 88 | 1002.5 |
| 20260505071421 | 56 | 360 | 0.0 | 0.0 | 0.00 | 0.31 | 0.00 | 88 | 1002.7 |
| 20260505070924 | 56 | 360 | 0.0 | 0.0 | 0.00 | 0.31 | 0.00 | 88 | 1002.7 |
| 20260505070426 | 56 | 360 | 0.0 | 0.0 | 0.00 | 0.31 | 0.00 | 88 | 1002.8 |
| 20260505065929 | 56 | 360 | 0.0 | 0.0 | 0.00 | 0.31 | 0.00 | 88 | 1002.7 |
| 20260505065431 | 56 | 360 | 0.0 | 0.0 | 0.00 | 0.31 | 0.00 | 88 | 1002.5 |
| 20260505064935 | 56 | 360 | 0.0 | 0.0 | 0.00 | 0.31 | 0.00 | 88 | 1002.2 |
| 20260505064434 | 56 | 360 | 0.0 | 0.0 | 0.00 | 0.31 | 0.00 | 88 | 1002.0 |
| 20260505063943 | 56 | 360 | 0.0 | 3.0 | 0.00 | 0.31 | 0.00 | 88 | 1002.0 |
| 20260505063424 | 56 | 360 | 1.0 | 3.0 | 0.00 | 0.31 | 0.00 | 88 | 1001.9 |
| 20260505062945 | 56 | 360 | 0.0 | 2.0 | 0.00 | 0.31 | 0.00 | 88 | 1001.7 |
| 20260505062426 | 57 | 360 | 0.0 | 2.0 | 0.00 | 0.31 | 0.00 | 88 | 1001.6 |
| 20260505061927 | 57 | 360 | 0.0 | 3.0 | 0.00 | 0.31 | 0.00 | 88 | 1001.7 |
| 20260505061425 | 57 | 360 | 0.0 | 3.0 | 0.00 | 0.31 | 0.00 | 88 | 1001.9 |
| 20260505060946 | 57 | 360 | 0.0 | 2.0 | 0.00 | 0.31 | 0.00 | 88 | 1001.8 |
| 20260505060425 | 57 | 360 | 0.0 | 3.0 | 0.00 | 0.31 | 0.00 | 88 | 1001.8 |
| 20260505055928 | 57 | 360 | 0.0 | 3.0 | 0.00 | 0.31 | 0.00 | 88 | 1001.7 |
| 20260505055431 | 57 | 360 | 0.0 | 2.0 | 0.00 | 0.31 | 0.00 | 88 | 1001.9 |
| 20260505054931 | 57 | 360 | 0.0 | 2.0 | 0.00 | 0.31 | 0.00 | 88 | 1001.9 |
| 20260505054452 | 57 | 360 | 0.0 | 2.0 | 0.00 | 0.31 | 0.00 | 88 | 1001.9 |
| 20260505053912 | 57 | 360 | 1.0 | 4.0 | 0.00 | 0.31 | 0.00 | 89 | 1001.9 |
| 20260505053414 | 57 | 360 | 1.0 | 6.0 | 0.00 | 0.31 | 0.00 | 89 | 1001.9 |
| 20260505052935 | 57 | 360 | 1.0 | 4.0 | 0.00 | 0.31 | 0.00 | 89 | 1001.9 |
| 20260505052415 | 57 | 360 | 2.0 | 4.0 | 0.00 | 0.31 | 0.00 | 89 | 1001.8 |
| 20260505051916 | 57 | 360 | 1.0 | 4.0 | 0.00 | 0.31 | 0.00 | 89 | 1001.6 |
| 20260505051416 | 57 | 360 | 2.0 | 4.0 | 0.00 | 0.31 | 0.00 | 89 | 1001.7 |
| 20260505050916 | 57 | 360 | 2.0 | 3.0 | 0.00 | 0.31 | 0.00 | 89 | 1001.6 |
| 20260505050417 | 57 | 360 | 0.0 | 3.0 | 0.00 | 0.31 | 0.00 | 88 | 1001.3 |
| 20260505041412 | 58 | 360 | 2.0 | 5.0 | 0.04 | 0.31 | 0.00 | 87 | 1000.7 |
| 20260505040915 | 58 | 360 | 2.0 | 8.0 | 0.04 | 0.31 | 0.00 | 87 | 1000.8 |
| 20260505040435 | 58 | 360 | 1.0 | 8.0 | 0.04 | 0.31 | 0.31 | 87 | 1000.4 |
| 20260505035949 | 58 | 360 | 0.0 | 5.0 | 0.04 | 0.31 | 0.31 | 86 | 1000.2 |
| 20260505035430 | 58 | 360 | 1.0 | 9.0 | 0.05 | 0.31 | 0.31 | 86 | 999.8 |
| 20260505034913 | 58 | 360 | 2.0 | 9.0 | 0.05 | 0.31 | 0.31 | 86 | 1000.5 |
| 20260505034414 | 58 | 360 | 1.0 | 6.0 | 0.04 | 0.30 | 0.30 | 86 | 1001.2 |
| 20260505033916 | 58 | 360 | 3.0 | 10.0 | 0.04 | 0.30 | 0.30 | 86 | 1001.9 |
| 20260505033417 | 59 | 360 | 4.0 | 11.0 | 0.03 | 0.29 | 0.29 | 86 | 1001.9 |
| 20260505032938 | 59 | 360 | 4.0 | 11.0 | 0.03 | 0.28 | 0.28 | 85 | 1001.8 |
| 20260505032420 | 59 | 360 | 3.0 | 9.0 | 0.03 | 0.28 | 0.28 | 85 | 1001.7 |
| 20260505031922 | 59 | 360 | 4.0 | 9.0 | 0.02 | 0.27 | 0.27 | 85 | 1001.5 |
| 20260505031441 | 59 | 360 | 5.0 | 8.0 | 0.03 | 0.27 | 0.27 | 84 | 1001.6 |
| 20260505030924 | 59 | 360 | 3.0 | 8.0 | 0.04 | 0.27 | 0.27 | 84 | 1001.5 |
| 20260505030444 | 59 | 360 | 3.0 | 8.0 | 0.05 | 0.27 | 0.27 | 83 | 1000.8 |
| 20260505025923 | 59 | 360 | 3.0 | 8.0 | 0.05 | 0.27 | 0.27 | 83 | 1000.6 |
| 20260505025445 | 59 | 360 | 2.0 | 12.0 | 0.06 | 0.26 | 0.26 | 84 | 1000.4 |
| 20260505024927 | 59 | 360 | 4.0 | 12.0 | 0.07 | 0.26 | 0.26 | 85 | 1000.3 |
| 20260505024430 | 59 | 360 | 5.0 | 14.0 | 0.07 | 0.26 | 0.26 | 86 | 1000.5 |
| 20260505023912 | 59 | 360 | 5.0 | 14.0 | 0.07 | 0.26 | 0.26 | 86 | 1000.8 |
| 20260505023413 | 59 | 360 | 1.0 | 10.0 | 0.08 | 0.26 | 0.26 | 85 | 1000.0 |
| 20260505022916 | 59 | 360 | 4.0 | 10.0 | 0.08 | 0.25 | 0.25 | 85 | 1000.9 |
| 20260505022419 | 59 | 360 | 5.0 | 10.0 | 0.11 | 0.25 | 0.25 | 84 | 1001.1 |
| 20260505021922 | 59 | 360 | 2.0 | 10.0 | 0.12 | 0.25 | 0.25 | 84 | 1000.6 |
| 20260505021425 | 59 | 360 | 4.0 | 6.0 | 0.11 | 0.24 | 0.24 | 84 | 1000.9 |
| 20260505020928 | 59 | 360 | 2.0 | 6.0 | 0.10 | 0.23 | 0.23 | 83 | 1001.0 |
| 20260505020413 | 60 | 360 | 2.0 | 6.0 | 0.09 | 0.22 | 0.22 | 82 | 1001.0 |
| 20260505015917 | 60 | 360 | 1.0 | 4.0 | 0.09 | 0.22 | 0.22 | 82 | 1000.8 |
| 20260505015421 | 60 | 360 | 0.0 | 0.0 | 0.07 | 0.20 | 0.20 | 80 | 1001.1 |
| 20260505014924 | 61 | 360 | 0.0 | 0.0 | 0.07 | 0.19 | 0.19 | 80 | 1001.6 |
| 20260505014427 | 61 | 360 | 0.0 | 3.0 | 0.07 | 0.19 | 0.19 | 79 | 1001.9 |
| 20260505013932 | 62 | 360 | 1.0 | 4.0 | 0.08 | 0.19 | 0.19 | 78 | 1001.7 |
| 20260505013436 | 62 | 360 | 1.0 | 8.0 | 0.11 | 0.18 | 0.18 | 78 | 1001.5 |
| 20260505012941 | 62 | 360 | 2.0 | 9.0 | 0.10 | 0.17 | 0.17 | 77 | 1001.4 |
| 20260505012422 | 63 | 360 | 4.0 | 9.0 | 0.07 | 0.14 | 0.14 | 78 | 1001.8 |
| 20260505011923 | 64 | 360 | 1.0 | 4.0 | 0.06 | 0.13 | 0.13 | 78 | 1000.9 |
| 20260505011426 | 64 | 360 | 0.0 | 6.0 | 0.06 | 0.13 | 0.13 | 77 | 1000.2 |
| 20260505010926 | 64 | 360 | 1.0 | 6.0 | 0.06 | 0.13 | 0.13 | 75 | 1000.1 |
| 20260505010427 | 65 | 360 | 1.0 | 8.0 | 0.06 | 0.13 | 0.13 | 74 | 1000.1 |
| 20260505005928 | 65 | 360 | 4.0 | 8.0 | 0.06 | 0.13 | 0.13 | 72 | 1000.0 |
| 20260505005449 | 66 | 360 | 2.0 | 5.0 | 0.06 | 0.13 | 0.13 | 70 | 1000.1 |
| 20260505004929 | 67 | 360 | 2.0 | 11.0 | 0.05 | 0.12 | 0.12 | 69 | 1000.1 |
| 20260505004451 | 68 | 360 | 4.0 | 11.0 | 0.05 | 0.12 | 0.12 | 66 | 999.8 |
| 20260505003912 | 69 | 360 | 4.0 | 11.0 | 0.03 | 0.10 | 0.10 | 65 | 1000.3 |
| 20260505003434 | 70 | 259 | 3.0 | 5.0 | 0.00 | 0.07 | 0.07 | 60 | 999.7 |
| 20260505002916 | 70 | 232 | 1.0 | 9.0 | 0.00 | 0.07 | 0.07 | 59 | 999.4 |
| 20260505002419 | 70 | 166 | 3.0 | 9.0 | 0.00 | 0.07 | 0.07 | 58 | 999.3 |
| 20260505001922 | 70 | 146 | 3.0 | 13.0 | 0.00 | 0.07 | 0.07 | 58 | 999.4 |
| 20260505001425 | 70 | 168 | 4.0 | 13.0 | 0.00 | 0.07 | 0.07 | 59 | 999.5 |
| 20260505000928 | 70 | 265 | 4.0 | 8.0 | 0.00 | 0.07 | 0.07 | 59 | 999.6 |
| 20260505000431 | 71 | 227 | 2.0 | 8.0 | 0.00 | 0.07 | 0.07 | 61 | 999.4 |
| 20260504235914 | 71 | 247 | 1.0 | 9.0 | 0.00 | 0.07 | 0.07 | 62 | 999.6 |
| 20260504235436 | 71 | 194 | 4.0 | 9.0 | 0.00 | 0.07 | 0.07 | 60 | 999.7 |
| 20260504234917 | 71 | 193 | 4.0 | 9.0 | 0.00 | 0.07 | 0.07 | 59 | 999.5 |
| 20260504234440 | 71 | 239 | 3.0 | 9.0 | 0.00 | 0.07 | 0.07 | 59 | 999.4 |
| 20260504233922 | 71 | 246 | 4.0 | 12.0 | 0.00 | 0.07 | 0.07 | 59 | 999.4 |
| 20260504233424 | 71 | 211 | 6.0 | 14.0 | 0.00 | 0.07 | 0.07 | 59 | 999.2 |
| 20260504232928 | 71 | 237 | 4.0 | 16.0 | 0.00 | 0.07 | 0.07 | 59 | 999.4 |
| 20260504232429 | 71 | 232 | 3.0 | 8.0 | 0.00 | 0.07 | 0.07 | 60 | 999.5 |
| 20260504231912 | 72 | 224 | 3.0 | 10.0 | 0.00 | 0.07 | 0.07 | 60 | 999.6 |
| 20260504231412 | 72 | 236 | 4.0 | 8.0 | 0.00 | 0.07 | 0.07 | 59 | 999.6 |
| 20260504230912 | 72 | 251 | 4.0 | 12.0 | 0.00 | 0.07 | 0.07 | 59 | 999.6 |
| 20260504230413 | 72 | 242 | 4.0 | 14.0 | 0.00 | 0.07 | 0.07 | 60 | 999.7 |
| 20260504225914 | 72 | 214 | 6.0 | 13.0 | 0.00 | 0.07 | 0.07 | 58 | 999.7 |
| 20260504225416 | 73 | 234 | 6.0 | 12.0 | 0.00 | 0.07 | 0.07 | 57 | 999.6 |
| 20260504224917 | 73 | 265 | 5.0 | 11.0 | 0.00 | 0.07 | 0.07 | 56 | 999.6 |
| 20260504224416 | 72 | 171 | 6.0 | 11.0 | 0.00 | 0.07 | 0.07 | 56 | 999.6 |
| 20260504223917 | 73 | 223 | 2.0 | 18.0 | 0.00 | 0.07 | 0.07 | 56 | 999.7 |
| 20260504223418 | 73 | 240 | 7.0 | 18.0 | 0.00 | 0.07 | 0.07 | 54 | 999.7 |
| 20260504222919 | 73 | 203 | 8.0 | 17.0 | 0.00 | 0.07 | 0.07 | 53 | 999.7 |
| 20260504222441 | 73 | 222 | 8.0 | 17.0 | 0.00 | 0.07 | 0.07 | 52 | 999.7 |
| 20260504221921 | 73 | 80 | 7.0 | 17.0 | 0.00 | 0.07 | 0.07 | 51 | 999.4 |
| 20260504221440 | 73 | 184 | 5.0 | 12.0 | 0.07 | 0.07 | 0.07 | 52 | 999.5 |
| 20260504220920 | 73 | 230 | 5.0 | 12.0 | 0.07 | 0.07 | 0.07 | 52 | 999.5 |
| 20260504220441 | 73 | 161 | 6.0 | 12.0 | 0.07 | 0.07 | 0.07 | 52 | 999.3 |
| 20260504215921 | 72 | 256 | 6.0 | 13.0 | 0.07 | 0.07 | 0.07 | 53 | 999.4 |
| 20260504215442 | 72 | 265 | 6.0 | 13.0 | 0.07 | 0.07 | 0.07 | 54 | 999.6 |
| 20260504214922 | 71 | 269 | 5.0 | 14.0 | 0.07 | 0.07 | 0.07 | 57 | 999.6 |
| 20260504214424 | 71 | 251 | 4.0 | 12.0 | 0.07 | 0.07 | 0.07 | 63 | 999.6 |
| 20260504213924 | 71 | 219 | 4.0 | 8.0 | 0.07 | 0.07 | 0.07 | 63 | 999.6 |
| 20260504213425 | 71 | 212 | 3.0 | 6.0 | 0.07 | 0.07 | 0.07 | 63 | 999.6 |
| 20260504212922 | 72 | 360 | 2.0 | 5.0 | 0.07 | 0.07 | 0.07 | 61 | 999.7 |
| 20260504212420 | 73 | 360 | 1.0 | 13.0 | 0.07 | 0.07 | 0.07 | 58 | 999.7 |
| 20260504211916 | 75 | 202 | 4.0 | 16.0 | 0.07 | 0.07 | 0.07 | 55 | 999.9 |
| 20260504211414 | 77 | 244 | 8.0 | 13.0 | 0.00 | 0.00 | 0.00 | 42 | 999.7 |
| 20260504210932 | 77 | 257 | 4.0 | 12.0 | 0.00 | 0.00 | 0.00 | 43 | 999.4 |
| 20260504210451 | 77 | 220 | 6.0 | 17.0 | 0.00 | 0.00 | 0.00 | 43 | 999.7 |
| 20260504205950 | 78 | 294 | 5.0 | 17.0 | 0.00 | 0.00 | 0.00 | 41 | 999.7 |
| 20260504205430 | 78 | 153 | 3.0 | 13.0 | 0.00 | 0.00 | 0.00 | 42 | 999.6 |
| 20260504204922 | 78 | 236 | 8.0 | 14.0 | 0.00 | 0.00 | 0.00 | 41 | 999.7 |
| 20260504204420 | 78 | 216 | 5.0 | 14.0 | 0.00 | 0.00 | 0.00 | 40 | 999.8 |
| 20260504203921 | 79 | 182 | 6.0 | 16.0 | 0.00 | 0.00 | 0.00 | 38 | 999.7 |
| 20260504203422 | 79 | 207 | 8.0 | 16.0 | 0.00 | 0.00 | 0.00 | 36 | 999.7 |
| 20260504202921 | 79 | 249 | 8.0 | 14.0 | 0.00 | 0.00 | 0.00 | 35 | 999.7 |
| 20260504202422 | 79 | 213 | 8.0 | 15.0 | 0.00 | 0.00 | 0.00 | 36 | 999.8 |
| 20260504201922 | 79 | 274 | 8.0 | 15.0 | 0.00 | 0.00 | 0.00 | 37 | 999.8 |
| 20260504201425 | 79 | 249 | 4.0 | 16.0 | 0.00 | 0.00 | 0.00 | 39 | 999.8 |
| 20260504201007 | 79 | 232 | 5.0 | 16.0 | 0.00 | 0.00 | 0.00 | 39 | 999.8 |
| 20260504200416 | 79 | 248 | 6.0 | 15.0 | 0.00 | 0.00 | 0.00 | 39 | 999.9 |
| 20260504195915 | 79 | 248 | 5.0 | 13.0 | 0.00 | 0.00 | 0.00 | 39 | 999.9 |
| 20260504195415 | 79 | 269 | 6.0 | 13.0 | 0.00 | 0.00 | 0.00 | 41 | 1000.0 |
| 20260504194915 | 78 | 219 | 5.0 | 14.0 | 0.00 | 0.00 | 0.00 | 40 | 1000.1 |
| 20260504194435 | 79 | 234 | 6.0 | 15.0 | 0.00 | 0.00 | 0.00 | 40 | 1000.1 |
| 20260504193914 | 78 | 227 | 6.0 | 12.0 | 0.00 | 0.00 | 0.00 | 40 | 1000.2 |
| 20260504193413 | 78 | 223 | 5.0 | 14.0 | 0.00 | 0.00 | 0.00 | 40 | 1000.5 |
| 20260504192914 | 78 | 239 | 6.0 | 14.0 | 0.00 | 0.00 | 0.00 | 40 | 1000.4 |
| 20260504192414 | 78 | 243 | 6.0 | 14.0 | 0.00 | 0.00 | 0.00 | 40 | 1000.4 |
| 20260504191930 | 78 | 257 | 5.0 | 14.0 | 0.00 | 0.00 | 0.00 | 41 | 1000.7 |
| 20260504191451 | 78 | 261 | 5.0 | 11.0 | 0.00 | 0.00 | 0.00 | 43 | 1000.7 |
| 20260504190932 | 77 | 155 | 6.0 | 10.0 | 0.00 | 0.00 | 0.00 | 43 | 1000.8 |
| 20260504190413 | 77 | 235 | 3.0 | 10.0 | 0.00 | 0.00 | 0.00 | 47 | 1000.9 |
| 20260504185933 | 77 | 188 | 6.0 | 13.0 | 0.00 | 0.00 | 0.00 | 44 | 1001.0 |
| 20260504185452 | 76 | 219 | 7.0 | 13.0 | 0.00 | 0.00 | 0.00 | 44 | 1001.0 |
| 20260504184931 | 77 | 219 | 7.0 | 13.0 | 0.00 | 0.00 | 0.00 | 44 | 1001.2 |
| 20260504184431 | 76 | 178 | 5.0 | 12.0 | 0.00 | 0.00 | 0.00 | 47 | 1001.1 |
| 20260504183931 | 77 | 223 | 4.0 | 18.0 | 0.00 | 0.00 | 0.00 | 46 | 1001.2 |
| 20260504183431 | 77 | 189 | 4.0 | 9.0 | 0.00 | 0.00 | 0.00 | 44 | 1001.2 |
| 20260504182930 | 77 | 165 | 5.0 | 9.0 | 0.00 | 0.00 | 0.00 | 45 | 1001.2 |
| 20260504182426 | 77 | 231 | 5.0 | 12.0 | 0.00 | 0.00 | 0.00 | 46 | 1001.4 |
| 20260504181926 | 76 | 250 | 7.0 | 12.0 | 0.00 | 0.00 | 0.00 | 45 | 1001.5 |
| 20260504181426 | 76 | 265 | 6.0 | 15.0 | 0.00 | 0.00 | 0.00 | 46 | 1001.4 |
| 20260504180926 | 76 | 98 | 6.0 | 15.0 | 0.00 | 0.00 | 0.00 | 46 | 1001.4 |
| 20260504180426 | 76 | 256 | 4.0 | 15.0 | 0.00 | 0.00 | 0.00 | 45 | 1001.3 |
| 20260504175924 | 76 | 254 | 7.0 | 15.0 | 0.00 | 0.00 | 0.00 | 46 | 1001.4 |
| 20260504175415 | 76 | 139 | 5.0 | 14.0 | 0.00 | 0.00 | 0.00 | 47 | 1001.6 |
| 20260504174917 | 76 | 161 | 7.0 | 10.0 | 0.00 | 0.00 | 0.00 | 45 | 1001.7 |
| 20260504174418 | 76 | 217 | 3.0 | 8.0 | 0.00 | 0.00 | 0.00 | 46 | 1001.6 |
| 20260504173939 | 75 | 207 | 3.0 | 8.0 | 0.00 | 0.00 | 0.00 | 46 | 1001.7 |
| 20260504173420 | 75 | 183 | 3.0 | 8.0 | 0.00 | 0.00 | 0.00 | 46 | 1001.7 |
| 20260504172929 | 75 | 222 | 2.0 | 9.0 | 0.00 | 0.00 | 0.00 | 48 | 1001.8 |
| 20260504172429 | 74 | 150 | 5.0 | 9.0 | 0.00 | 0.00 | 0.00 | 48 | 1002.0 |
| 20260504171928 | 74 | 261 | 5.0 | 9.0 | 0.00 | 0.00 | 0.00 | 46 | 1002.0 |
| 20260504171428 | 75 | 172 | 6.0 | 11.0 | 0.00 | 0.00 | 0.00 | 46 | 1002.2 |
| 20260504170927 | 74 | 223 | 4.0 | 12.0 | 0.00 | 0.00 | 0.00 | 45 | 1002.2 |
| 20260504170427 | 74 | 190 | 5.0 | 15.0 | 0.00 | 0.00 | 0.00 | 44 | 1002.4 |
| 20260504160431 | 71 | 221 | 5.0 | 11.0 | 0.00 | 0.00 | 0.00 | 46 | 1003.3 |